Regional Weather Roundup
Issued by NWS

Home | Current Version | Previous Version | Graphics & Text | Print | Product List | Glossary Off
Versions: 1 2 3 4 5 6 7 8 9 10 11 12 13 14 15 16 17 18 19 20 21 22 23 24 25 26 27 28 29 30 31 32 33 34 35 36 37 38 39 40 41 42 43 44 45 46 47 48 49 50

000
ASUS43 KFSD 270302
RWRSD

WEATHER ROUNDUP FOR SOUTH DAKOTA
NATIONAL WEATHER SERVICE SIOUX FALLS SD
1000 PM CDT MON JUN 26 2017

NOTE: "FAIR" INDICATES FEW OR NO CLOUDS BELOW 12,000 FEET WITH NO
SIGNIFICANT WEATHER AND/OR OBSTRUCTIONS TO VISIBILITY.


SDZ001>005-009-010-012>017-270400-
NORTHWEST AND NORTH CENTRAL SOUTH DAKOTA

CITY           SKY/WX    TMP DP  RH WIND       PRES   REMARKS
BUFFALO          N/A     70  39  32 SE20      29.91F
FAITH            N/A     65  41  41 SE18      30.02F
MOBRIDGE       PTCLDY    65  35  33 SE15      30.04F
$$

SDZ012>016-024>037-041>051-057-063-072>074-270400-
SOUTHWEST AND SOUTH CENTRAL SOUTH DAKOTA

CITY           SKY/WX    TMP DP  RH WIND       PRES   REMARKS
RAPID CTY ARPT CLEAR     69  39  33 SE16      30.01F
PIERRE         PTCLDY    60  43  53 SE7       30.06F
CUSTER         CLEAR     63  36  36 VRB3      30.14F
ELLSWORTH AFB  CLEAR     70  39  32 SE18      30.01S
PHILIP         CLEAR     65  41  41 E13       30.03F
PINE RIDGE     CLEAR     66  43  43 E8        30.05F
SPEARFISH      FAIR      66  43  42 E12       29.99F
WINNER         FAIR      60  40  47 SE9       30.10F
$$

SDZ004>011-016>023-039-040-270400-
NORTHEAST SOUTH DAKOTA

CITY           SKY/WX    TMP DP  RH WIND       PRES   REMARKS
ABERDEEN       CLEAR     56  42  59 S8        30.10S
WATERTOWN      CLEAR     60  40  47 SE3       30.13S
BROOKINGS      CLEAR     60  39  45 CALM      30.14S
SISSETON         N/A     58  46  64 SW7       30.10S
$$

SDZ017-020-022-023-036>040-048>070-270400-
SOUTHEAST SOUTH DAKOTA

CITY           SKY/WX    TMP DP  RH WIND       PRES   REMARKS
SIOUX FALLS    PTCLDY    57  47  69 E5        30.13S
HURON          CLEAR     61  40  45 E5        30.11S
CHAMBERLAIN    CLEAR     61  42  50 E7        30.11R
MITCHELL       CLEAR     60  42  51 SE6       30.12S
$$

ABBREVIATIONS USED IN REMARKS
   TC - TEMPERATURE IN CELSIUS
  WCI - WIND CHILL INDEX
   HX - HEAT INDEX
  VSB - VISIBILITY





USA.gov is the U.S. government's official web portal to all federal, state and local government web resources and services.